Date String (YYYY-MM-DD hh:mm:ss) UTC,Instrument flags,Ambient pressure (hPa),Sample flow (lpm),Bypass flow (lpm),Sample temperature (°C),Ambient temperature (°C),ASC tube jacket temperature (°C),LED temperature (°C),Box temperature (°C),Sample RH (%),Span deviation,Mass concentration (μg/m³),Mass concentration (μg/m³),Mass concentration (μg/m³)
DateTimeUTC,F1_M11,P_M11,Q1_M11,Q2_M11,T1_M11,T2_M11,T3_M11,T4_M11,T5_M11,U1_M11,ZSPAN_M11,X0_M11,X2_M11,X1_M11
2021-09-19 23:00:00,,0819.1,5.01,0.00,29.1,27.7,00.0,38.1,30.9,15.2,0002.6,0017.53,0009.73,0009.26
2021-09-19 23:01:00,,0819.1,4.99,0.00,29.1,28.0,00.0,38.1,31.0,15.2,0002.5,0017.46,0009.69,0009.23
2021-09-19 23:02:00,,0819.1,5.00,0.00,29.2,28.2,00.0,38.2,31.1,15.3,0002.4,0018.11,0009.70,0009.20
2021-09-19 23:03:00,,0819.2,4.99,0.00,29.3,28.4,00.0,38.2,31.2,14.9,0002.4,0017.54,0009.64,0009.14
2021-09-19 23:04:00,,0819.2,5.00,0.00,29.3,28.1,00.0,38.2,31.1,14.8,0002.4,0017.30,0009.55,0009.07
2021-09-19 23:05:00,,0819.2,5.01,0.00,29.2,26.2,00.0,38.2,30.6,14.9,0002.4,0017.05,0009.47,0008.99
2021-09-19 23:06:00,,0819.1,4.99,0.00,29.0,25.6,00.0,38.2,30.4,15.3,0002.5,0016.58,0009.38,0008.91
2021-09-19 23:07:00,,0819.2,5.00,0.00,29.0,26.0,00.0,38.2,30.5,15.2,0002.4,0016.86,0009.28,0008.81
2021-09-19 23:08:00,,0819.2,5.00,0.00,29.0,26.5,00.0,38.1,30.6,15.2,0002.3,0015.77,0009.20,0008.72
2021-09-19 23:09:00,,0819.2,5.00,0.00,29.0,27.0,00.0,38.1,30.8,15.3,0002.3,0014.99,0009.16,0008.65
2021-09-19 23:10:00,,0819.2,5.01,0.00,29.1,27.4,00.0,38.1,30.9,15.4,0002.3,0015.54,0009.10,0008.58
2021-09-19 23:11:00,,0819.3,5.00,0.00,29.1,27.8,00.0,38.1,31.0,15.3,0002.4,0014.71,0009.02,0008.51
2021-09-19 23:12:00,,0819.3,4.99,0.00,29.2,28.1,00.0,38.1,31.1,15.3,0002.5,0014.51,0008.95,0008.45
2021-09-19 23:13:00,,0819.3,5.00,0.00,29.2,28.3,00.0,38.2,31.2,15.2,0002.5,0013.69,0008.86,0008.40
2021-09-19 23:14:00,,0819.2,5.01,0.00,29.3,28.5,00.0,38.2,31.3,15.2,0002.7,0013.54,0008.77,0008.34
2021-09-19 23:15:00,,0819.2,5.01,0.00,29.4,28.4,00.0,38.2,31.2,15.1,0002.5,0013.44,0008.70,0008.27
2021-09-19 23:16:00,,0819.2,5.00,0.00,29.3,26.7,00.0,38.2,30.8,15.1,0002.5,0013.32,0008.61,0008.20
2021-09-19 23:17:00,,0819.2,4.99,0.00,29.1,25.7,00.0,38.2,30.5,15.2,0002.3,0013.63,0008.54,0008.14
2021-09-19 23:18:00,,0819.3,5.02,0.00,29.1,26.0,00.0,38.2,30.5,15.3,0002.3,0013.18,0008.46,0008.08
2021-09-19 23:19:00,,0819.3,4.99,0.00,29.0,26.5,00.0,38.2,30.6,15.3,0002.2,0013.28,0008.40,0008.02
2021-09-19 23:20:00,,0819.3,5.01,0.00,29.1,27.0,00.0,38.2,30.8,15.5,0001.9,0013.18,0008.31,0007.94
2021-09-19 23:21:00,,0819.3,4.99,0.00,29.1,27.4,00.0,38.1,30.9,15.5,0001.7,0012.46,0008.23,0007.88
2021-09-19 23:22:00,,0819.2,5.01,0.00,29.1,27.7,00.0,38.2,31.0,15.3,0001.8,0012.36,0008.16,0007.81
2021-09-19 23:23:00,,0819.3,4.99,0.00,29.2,28.0,00.0,38.2,31.1,15.0,0001.8,0012.20,0008.08,0007.72
2021-09-19 23:24:00,,0819.3,5.00,0.00,29.3,28.3,00.0,38.2,31.2,14.8,0001.9,0012.16,0007.97,0007.62
2021-09-19 23:25:00,,0819.4,5.00,0.00,29.3,28.5,00.0,38.2,31.3,14.9,0001.5,0012.48,0007.89,0007.52
2021-09-19 23:26:00,,0819.4,5.00,0.00,29.4,28.5,00.0,38.2,31.3,15.0,0001.7,0012.40,0007.81,0007.45
2021-09-19 23:27:00,,0819.3,5.01,0.00,29.3,27.1,00.0,38.3,30.9,15.1,0001.9,0012.30,0007.74,0007.39
2021-09-19 23:28:00,,0819.4,4.99,0.00,29.2,25.8,00.0,38.2,30.5,15.3,0002.1,0011.72,0007.70,0007.34
2021-09-19 23:29:00,,0819.4,5.00,0.00,29.1,26.0,00.0,38.2,30.5,15.5,0002.0,0011.76,0007.71,0007.31
2021-09-19 23:30:00,,0819.5,4.99,0.00,29.1,26.4,00.0,38.2,30.7,15.6,0002.0,0011.58,0007.69,0007.28
2021-09-19 23:31:00,,0819.5,5.01,0.00,29.1,26.9,00.0,38.2,30.8,15.4,0002.1,0011.54,0007.72,0007.29
2021-09-19 23:32:00,,0819.5,5.00,0.00,29.1,27.3,00.0,38.2,30.9,15.5,0002.2,0011.50,0007.73,0007.30
2021-09-19 23:33:00,,0819.5,5.01,0.00,29.1,27.7,00.0,38.2,31.0,15.7,0002.0,0011.87,0007.74,0007.30
2021-09-19 23:34:00,,0819.5,4.99,0.00,29.2,28.0,00.0,38.2,31.1,15.8,0002.0,0012.56,0007.74,0007.30
2021-09-19 23:35:00,,0819.4,5.00,0.00,29.3,28.2,00.0,38.2,31.2,15.8,0001.8,0012.79,0007.76,0007.33
2021-09-19 23:36:00,,0819.4,5.01,0.00,29.3,28.4,00.0,38.2,31.3,15.8,0001.8,0012.49,0007.79,0007.36
2021-09-19 23:37:00,,0819.2,4.99,0.00,29.4,28.2,00.0,38.3,31.2,15.6,0001.7,0012.52,0007.80,0007.36
2021-09-19 23:38:00,,0819.2,5.01,0.00,29.3,26.5,00.0,38.3,30.7,15.4,0001.6,0012.64,0007.82,0007.34
2021-09-19 23:39:00,,0819.3,5.00,0.00,29.1,25.6,00.0,38.2,30.4,15.5,0001.7,0012.66,0007.79,0007.32
2021-09-19 23:40:00,,0819.3,5.01,0.00,29.1,26.0,00.0,38.2,30.5,15.8,0001.9,0012.61,0007.76,0007.30
2021-09-19 23:41:00,,0819.2,5.00,0.00,29.0,26.5,00.0,38.2,30.6,15.9,0002.2,0012.76,0007.67,0007.25
2021-09-19 23:42:00,,0819.2,5.00,0.00,29.0,26.9,00.0,38.2,30.8,15.9,0002.3,0013.00,0007.57,0007.17
2021-09-19 23:43:00,,0819.2,5.00,0.00,29.1,27.4,00.0,38.2,30.9,15.7,0002.3,0012.91,0007.49,0007.10
2021-09-19 23:44:00,,0819.1,4.99,0.00,29.1,27.7,00.0,38.2,31.0,15.7,0002.3,0012.42,0007.42,0007.03
2021-09-19 23:45:00,,0819.1,5.01,0.00,29.2,28.0,00.0,38.2,31.1,15.6,0002.1,0011.72,0007.35,0006.95
2021-09-19 23:46:00,,0819.1,4.99,0.00,29.3,28.3,00.0,38.2,31.2,15.3,0002.4,0011.40,0007.30,0006.88
2021-09-19 23:47:00,,0819.1,5.00,0.00,29.3,28.5,00.0,38.2,31.3,15.3,0002.6,0011.25,0007.24,0006.82
2021-09-19 23:48:00,,0819.1,5.01,0.00,29.4,28.4,00.0,38.2,31.3,15.3,0002.4,0011.17,0007.17,0006.77
2021-09-19 23:49:00,,0819.1,4.99,0.00,29.3,26.8,00.0,38.2,30.8,15.3,0002.4,0010.95,0007.07,0006.71
2021-09-19 23:50:00,,0819.2,4.99,0.00,29.1,25.6,00.0,38.2,30.5,15.7,0002.1,0010.89,0007.01,0006.65
2021-09-19 23:51:00,,0819.1,5.01,0.00,29.1,25.9,00.0,38.2,30.5,15.8,0002.1,0010.87,0006.96,0006.59
2021-09-19 23:52:00,,0819.1,5.01,0.00,29.0,26.4,00.0,38.2,30.6,15.8,0002.1,0010.55,0006.93,0006.56
2021-09-19 23:53:00,,0819.1,5.00,0.00,29.0,26.9,00.0,38.2,30.7,15.8,0002.1,0010.15,0006.89,0006.52
2021-09-19 23:54:00,,0819.0,5.00,0.00,29.1,27.3,00.0,38.2,30.8,15.4,0002.1,0010.14,0006.88,0006.48
2021-09-19 23:55:00,,0819.0,4.98,0.00,29.1,27.6,00.0,38.2,30.9,15.2,0002.2,0011.50,0006.83,0006.43
2021-09-19 23:56:00,,0819.0,5.01,0.00,29.2,27.9,00.0,38.2,31.0,15.1,0002.4,0011.73,0006.82,0006.40
2021-09-19 23:57:00,,0819.0,4.99,0.00,29.2,28.1,00.0,38.2,31.1,15.2,0002.4,0011.65,0006.76,0006.36
2021-09-19 23:58:00,,0819.0,4.99,0.00,29.3,28.4,00.0,38.2,31.2,15.3,0002.2,0011.57,0006.71,0006.32
2021-09-19 23:59:00,,0819.0,5.00,0.00,29.3,28.5,00.0,38.2,31.3,15.3,0002.3,0011.48,0006.67,0006.29
